This demonstration page uses our WeatherBlox Daily Observations layout. Learn more.

Left ArrowRight Arrow

38.80484, -77.04692

Hourly Observations for February 8, 2019

Temp ( °F °C ) Dew Point ( °F °C ) Humidity (%) Winds ( mph kmh ) Pressure ( in mb ) Visibility ( mi km ) Precip ( " mm )
12:10 am 00:10 Cloudy with Mist and Fog 48 8.9 46 7.8 93 93 S 6 9 29.95 1014 3 4 0.00 0.00
12:24 am 00:24 Cloudy with Mist and Fog 49 9.4 47 8.3 93 93 S 3 6 29.94 1014 5 8 0.00 0.00
12:43 am 00:43 Cloudy with Mist and Fog 48 8.9 47 8.3 96 96 SSE 3 6 29.94 1014 3 4 0.00 0.00
12:52 am 00:52 Cloudy with Mist and Fog 48 8.9 46 7.8 93 93 S 5 7 29.94 1014 2 2 0.00 0.00
1:18 am 01:18 Mostly Cloudy with Drizzle 48 8.9 46 7.8 93 93 S 3 6 29.93 1014 1 1 0.00 0.03
1:52 am 01:52 Mostly Cloudy with Drizzle 49 9.4 46 7.8 90 90 NE 6 9 29.93 1013 0 0 0.00 0.03
2:11 am 02:11 Mostly Cloudy with Drizzle 48 8.9 46 7.8 93 93 NE 8 13 29.93 1014 0 0 0.00 0.03
2:35 am 02:35 Cloudy with Drizzle 48 8.9 46 7.8 93 93 NNE 13 20 29.93 1014 2 2 0.00 0.03
2:52 am 02:52 Cloudy with Mist and Fog 47 8.3 44 6.7 90 90 NNE 10 17 29.94 1014 3 4 0.00 0.03
3:43 am 03:43 Cloudy with Mist and Fog 45 7.2 42 5.6 90 90 N 13 20 29.96 1015 3 5 0.00 0.00
3:52 am 03:52 Cloudy with Mist and Fog 44 6.7 42 5.6 93 93 NNE 13 20 29.97 1015 3 5 0.00 0.00
4:52 am 04:52 Cloudy 45 7.2 42 5.6 90 90 Calm 29.95 1014 7 11 0.00 0.00
5:26 am 05:26 Cloudy with Light Rain 45 7.2 42 5.6 90 90 Calm 29.95 1014 6 10 0.00 0.03
5:52 am 05:52 Cloudy 45 7.2 43 6.1 93 93 Calm 29.96 1014 7 11 0.00 0.03
6:52 am 06:52 Cloudy 46 7.8 43 6.1 89 89 S 5 7 29.96 1014 9 14 0.00 0.00
7:19 am 07:19 Cloudy 46 7.8 43 6.1 89 89 S 6 9 29.96 1015 9 14 0.00 0.00
7:52 am 07:52 Cloudy 46 7.8 43 6.1 89 89 S 7 11 29.96 1015 8 13 0.00 0.00
8:05 am 08:05 Cloudy with Light Rain 46 7.8 42 5.6 86 86 S 9 15 29.96 1015 6 10 0.00 0.03
8:26 am 08:26 Cloudy with Mist and Fog 46 7.8 43 6.1 89 89 S 8 13 29.95 1014 5 8 0.00 0.03
8:52 am 08:52 Cloudy with Light Rain 48 8.9 45 7.2 89 89 SSE 6 9 29.94 1014 4 6 0.00 0.03
9:06 am 09:06 Cloudy with Light Rain 48 8.9 45 7.2 89 89 VRB 3 6 29.98 1015 4 6 0.00 0.03
9:27 am 09:27 Cloudy with Light Rain 50 10 47 8.3 89 89 NW 9 15 30.00 1016 7 11 0.00 0.03
9:52 am 09:52 Cloudy with Mist and Fog 50 10 47 8.3 89 89 W 5 7 29.98 1015 6 10 0.00 0.03
10:03 am 10:03 Cloudy 51 10.6 47 8.3 86 86 SW 3 6 30.01 1016 7 11 0.00 0.00
10:15 am 10:15 Partly Cloudy with Light Rain 49 9.4 45 7.2 86 86 ESE 5 7 30.00 1016 4 6 0.00 0.03
10:52 am 10:52 Mostly Cloudy with Mist and Fog 51 10.6 48 8.9 89 89 S 7 11 30.02 1017 5 8 0.00 0.03
11:52 am 11:52 Mostly Cloudy 58 14.4 33 0.6 39 39 WNW 16 26 30.03 1017 10 16 0.00 0.00
12:52 pm 12:52 Mostly Cloudy 59 15 26 -3.3 28 28 NW 23 37 30.05 1018 10 16 0.00 0.00
1:52 pm 13:52 Mostly Cloudy 59 15 29 -1.7 32 32 NW 17 28 30.08 1019 10 16 0.00 0.00
2:52 pm 14:52 Mostly Cloudy 58 14.4 26 -3.3 29 29 NW 17 28 30.11 1020 10 16 0.00 0.00
3:52 pm 15:52 Mostly Cloudy 55 12.8 20 -6.7 25 25 NW 24 39 30.12 1020 10 16 0.00 0.00
4:52 pm 16:52 Mostly Cloudy 51 10.6 21 -6.1 31 31 NW 16 26 30.16 1022 10 16 0.00 0.00
5:52 pm 17:52 Mostly Cloudy 49 9.4 20 -6.7 32 32 NW 13 20 30.20 1023 10 16 0.00 0.00
6:52 pm 18:52 Mostly Cloudy 46 7.8 19 -7.2 34 34 NW 16 26 30.25 1024 10 16 0.00 0.00
7:52 pm 19:52 Mostly Cloudy 43 6.1 16 -8.9 34 34 NW 16 26 30.30 1026 10 16 0.00 0.00
8:52 pm 20:52 Mostly Cloudy 41 5 12 -11.1 30 30 NW 24 39 30.36 1028 10 16 0.00 0.00
9:52 pm 21:52 Mostly Cloudy 39 3.9 12 -11.1 33 33 NW 22 35 30.40 1029 10 16 0.00 0.00
10:52 pm 22:52 Cloudy 38 3.3 12 -11.1 34 34 NW 23 37 30.42 1030 10 16 0.00 0.00
11:52 pm 23:52 Cloudy 37 2.8 11 -11.7 34 34 NW 16 26 30.44 1031 10 16 0.00 0.00

Powered by AerisWeather